STARLINK-4502 (53557 NORAD) Tracking and Keplerian Element Data

This shows tracking and keplerian element data for the satellite.

Feedback or suggestion? Click here.




ElementValue
Catalog53557
NameSTARLINK-4502
Epoch Orbit1444
Epoch Day325.02076584
Epoch Year2022
RAAN72.0784
Inclination53.2198
Eccentricity0.0001964
Argument of Perigee45.7051
Mean Anonmoly314.4102
Mean Motion15.08843452
Decay Rate8.344E-05
L11 53557U 22101AG 22325.02076584 .00008344 00000+0 54167-3 0 9991
L22 53557 53.2198 72.0784 0001964 45.7051 314.4102 15.08843452 14443



Live tracking and technical data element details for STARLINK-4502 (NORAD 53557). STARLINK-4502 can be tracked NOW for your location showing map with azimuth and elevation plus other details from your city location.







IsCatalogInMostPopularTable: catalog: 53557, numindb: 3
Update: records affected: 1



GetName: 53557 STARLINK-4502

Hit Count: updated at: Thu, 08 Dec 2022 20:51:33 GMT